Location: Newark
(33.0600°N, 86.0531°W)
Time: 16:17:28
(UTC+00:00)

LightSail 2 - Visible Passes

Search period start: 15 November 2019 00:00
Search period end: 25 November 2019 00:00
Orbit: 701 x 726 km, 24.0° (Epoch: 14 November)

Date Brightness Start Highest point End Pass type
(mag) Time Alt. Az. Time Alt. Az. Time Alt. Az.
15 Nov 6.7 09:49:43 28° SSE 09:49:43 28° SSE 09:53:11 10° ESE visible
15 Nov 6.9 11:29:40 10° WSW 11:33:44 23° SSW 11:37:48 10° SE visible
16 Nov 6.6 10:34:26 22° SW 10:35:57 26° S 10:40:15 10° SE visible
17 Nov 7.1 09:40:08 22° SSE 09:40:08 22° SSE 09:42:35 10° SE visible
17 Nov 7.1 11:19:45 10° WSW 11:23:09 18° SSW 11:26:34 10° SSE visible
18 Nov 6.8 10:24:49 21° SSW 10:25:23 21° SSW 10:29:15 10° SE visible
19 Nov 7.6 09:30:32 15° SSE 09:30:32 15° SSE 09:31:43 10° SE visible
19 Nov 7.4 11:10:34 10° SW 11:12:30 12° SSW 11:14:27 10° S visible
20 Nov 7.2 10:15:12 15° SSW 10:15:12 15° SSW 10:17:43 10° SSE visible
